Content
SEND FEEDBACK

Daily
Averages
Monthly
Summary
French Polynesia

PAPEETE, FRENCH POLYNESIA


Home > Oceania > French Polynesia
Elevation: 7 feet     Latitude: 17 33S     Longitude: 149 36W

WEATHER
 
SELECT A DAY
Number of Records: 214,722;   Date Range: 6/30/96 - 10/30/14
 
SHARE

PRINT THIS DATA

[ ← Previous Day ]
WEATHER ALMANAC - APRIL 17, 2013
[ Next Day → ]
[ °C ]   °F
Weather ElementAverageHighLow
Temperature81.7 °F87.8 °F (12:00 pm)75.2 °F (5:30 am)
Dewpoint72.2 °F75.2 °F (12:30 pm)69.8 °F (12:30 am)
Humidity72.3 %83 % (5:30 am)58 % (11:00 am)
Barometer29.91 in29.95 in (12:30 am)29.86 in (12:30 pm)
Wind Speed5.6 mph22.4 mph (2:00 pm)
Weather ElementAverage
Visibility7 mi
Wind DirectionENE (79.4 °)

Weather ElementTotal
Precipitation---
Cooling Degree Days16.5 (Base 65)
Growing Degree Days31.5 (Base 50)
Averaged from 52 records on April 17, 2013
WEATHER CONDITIONS BREAKOUT
WIND DIRECTION BREAKOUT
WEATHER BY HOUR - APRIL 17, 2013
[ °C ]   °F
Local TimeTemperatureDewpointHumidityBarometerVisibilityWind DirectionWind SpeedGust SpeedPrecipitationEventsConditions
12:30 AM77.0 °F69.8 °F78 %29.95 in6.2 miVariable1.2 mphScattered Clouds
1:00 AM77.0 °F69.8 °F78 %29.92 in6.2 miVariable2.3 mphScattered Clouds
1:30 AM77.0 °F69.8 °F78 %29.92 in6.2 miCalmScattered Clouds
2:00 AM76.0 °F70.0 °F77 %29.93 in12.0 miSouth (170°)3.5 mphScattered Clouds
2:00 AM77.0 °F69.8 °F78 %29.92 in6.2 miSouth (170°)3.5 mphScattered Clouds
2:30 AM77.0 °F69.8 °F78 %29.92 in6.2 miCalmScattered Clouds
3:00 AM77.0 °F69.8 °F78 %29.92 in6.2 miVariable3.5 mphScattered Clouds
3:30 AM77.0 °F69.8 °F78 %29.92 in6.2 miVariable3.5 mph
4:00 AM77.0 °F69.8 °F78 %29.92 in6.2 miSE (130°)2.3 mphPartly Cloudy
4:30 AM77.0 °F69.8 °F78 %29.92 in6.2 miCalm
5:00 AM77.0 °F69.8 °F78 %29.92 in6.2 miVariable2.3 mph
5:30 AM75.2 °F69.8 °F83 %29.92 in6.2 miCalm
6:00 AM77.0 °F69.8 °F78 %29.92 in6.2 miVariable1.2 mphMostly Cloudy
6:30 AM77.0 °F69.8 °F78 %29.95 in6.2 miSouth (170°)3.5 mphMostly Cloudy
7:00 AM77.0 °F71.6 °F83 %29.95 in6.2 miEast (80°)3.5 mphMostly Cloudy
7:30 AM78.8 °F71.6 °F78 %29.95 in6.2 miEast (100°)2.3 mphMostly Cloudy
8:00 AM83.0 °F71.0 °F59 %29.95 in12.0 miENE (60°)8.1 mphPartly Cloudy
8:00 AM82.4 °F71.6 °F70 %29.95 in6.2 miENE (60°)8.1 mphMostly Cloudy
8:30 AM84.2 °F71.6 °F66 %29.95 in6.2 miNNE (30°)5.8 mphMostly Cloudy
9:00 AM84.2 °F71.6 °F66 %29.95 in6.2 miNNE (20°)6.9 mphMostly Cloudy
9:30 AM84.2 °F73.4 °F70 %29.95 in6.2 miNNE (20°)5.8 mphMostly Cloudy
10:00 AM84.2 °F71.6 °F66 %29.95 in6.2 miSE (140°)4.6 mphMostly Cloudy
11:00 AM85.0 °F72.0 °F58 %29.93 in12.0 miSSW (200°)8.1 mphScattered Clouds
11:00 AM84.2 °F71.6 °F66 %29.92 in6.2 miSouth (190°)8.1 mphMostly Cloudy
11:30 AM86.0 °F73.4 °F66 %29.92 in6.2 miSSW (210°)3.5 mphMostly Cloudy
12:00 PM87.8 °F73.4 °F62 %29.89 in6.2 miNE (40°)9.2 mphMostly Cloudy
12:30 PM87.8 °F75.2 °F66 %29.86 in6.2 miNE (50°)12.7 mphMostly Cloudy
1:00 PM87.8 °F73.4 °F62 %29.86 in6.2 miNE (50°)13.8 mphMostly Cloudy
1:30 PM87.8 °F73.4 °F62 %29.86 in6.2 miNE (50°)12.7 mphMostly Cloudy
2:00 PM86.0 °F74.0 °F60 %29.86 in12.0 miNE (50°)22.4 mphScattered Clouds
2:00 PM86.0 °F73.4 °F66 %29.86 in6.2 miNE (50°)11.5 mphMostly Cloudy
2:30 PM86.0 °F75.2 °F70 %29.86 in6.2 miNE (50°)10.4 mphMostly Cloudy
3:00 PM86.0 °F75.2 °F70 %29.86 in6.2 miNE (50°)9.2 mphMostly Cloudy
3:30 PM86.0 °F73.4 °F66 %29.86 in6.2 miNE (50°)9.2 mphScattered Clouds
4:00 PM86.0 °F73.4 °F66 %29.86 in6.2 miNE (50°)8.1 mphScattered Clouds
4:30 PM86.0 °F73.4 °F66 %29.86 in6.2 miVariable2.3 mphScattered Clouds
5:00 PM84.0 °F74.0 °F64 %29.88 in12.0 miSouth (190°)17.9 mphPartly Cloudy
5:00 PM84.2 °F73.4 °F70 %29.86 in6.2 miSouth (190°)9.2 mphScattered Clouds
5:30 PM84.2 °F73.4 °F70 %29.86 in6.2 miSouth (170°)4.6 mphScattered Clouds
6:00 PM82.4 °F73.4 °F74 %29.86 in6.2 miNorth (360°)4.6 mphScattered Clouds
6:30 PM82.4 °F73.4 °F74 %29.89 in6.2 miNE (40°)3.5 mphPartly Cloudy
7:00 PM82.4 °F73.4 °F74 %29.89 in6.2 miSouth (170°)3.5 mphScattered Clouds
7:30 PM80.6 °F73.4 °F79 %29.92 in6.2 miEast (80°)5.8 mphScattered Clouds
8:00 PM82.0 °F73.0 °F68 %29.93 in12.0 miENE (60°)3.5 mphScattered Clouds
8:00 PM82.4 °F73.4 °F74 %29.92 in6.2 miVariable3.5 mphScattered Clouds
8:30 PM80.6 °F73.4 °F79 %29.92 in6.2 miESE (110°)3.5 mphScattered Clouds
9:30 PM80.6 °F73.4 °F79 %29.92 in6.2 miVariable2.3 mphScattered Clouds
10:00 PM80.6 °F73.4 °F79 %29.92 in6.2 miCalmScattered Clouds
10:30 PM80.6 °F73.4 °F79 %29.92 in6.2 miVariable2.3 mphScattered Clouds
11:00 PM80.0 °F73.0 °F73 %29.93 in12.0 miSouth (180°)4.6 mphScattered Clouds
11:00 PM78.8 °F73.4 °F83 %29.92 in6.2 miSouth (180°)4.6 mphScattered Clouds
11:30 PM78.8 °F71.6 °F78 %29.89 in6.2 miSSE (160°)3.5 mphPartly Cloudy
Hourly data recorded from NTAA, located miles away from Papeete, French Polynesia







STORIES FROM OUR PARTNERS